Home   Weather   Denmark   Randers   Past weeks
Flag for Denmark

Past Weather in Randers, Denmark — Yesterday and Last 2 Weeks

Currently: 41 °F. Overcast. (Weather station: Tirstrup, Denmark). See more current weather

Past Weather in Randers — Graph

°F

Randers Temperature Yesterday

Maximum temperature yesterday: 46 °F (at 2:20 pm)
Minimum temperature yesterday: 39 °F (at 8:20 am)
Average temperature yesterday: 44 °F

High & Low Weather Summary for the Past Weeks

 TemperatureHumidityPressure
High50 °F (Jan 13, 1:20 pm)100% (Jan 11, 11:20 am)30.48 "Hg (Jan 11, 11:20 am)
Low27 °F (Jan 15, 6:20 am)41% (Jan 20, 1:50 pm)29.56 "Hg (Jan 19, 5:50 pm)
Average40 °F86%30.23 "Hg
* Reported Jan 11 4:50 am — Jan 26 4:50 am, Randers. Weather by CustomWeather, © 2022

Note: Actual official high and low records may vary slightly from our data, if they occured in-between our weather recording intervals... More about our weather records

Randers Weather History for the Previous 24 Hours

Scroll right to see more
 ConditionsComfort  
Time TempWeatherWind HumidityBarometerVisibility
4:50 am
Wed, Jan 26
41 °FPassing clouds.15 mph93%30.21 "HgN/A
4:20 am41 °FLight rain. Passing clouds.14 mph100%30.21 "HgN/A
3:50 am43 °FLow clouds.9 mph93%30.21 "Hg4 mi
3:20 am43 °FPassing clouds.14 mph87%30.21 "HgN/A
2:50 am43 °FPassing clouds.14 mph87%30.24 "Hg6 mi
2:20 am43 °FPassing clouds.13 mph93%30.24 "HgN/A
1:50 am45 °FOvercast.15 mph87%30.24 "HgN/A
1:20 am45 °FLow clouds.14 mph87%30.27 "HgN/A
12:50 am45 °FLow clouds.15 mph87%30.27 "HgN/A
12:20 am45 °FPassing clouds.13 mph87%30.27 "HgN/A
11:50 pm
Tue, Jan 25
45 °FLow clouds.12 mph93%30.27 "HgN/A
10:50 pm45 °FLow clouds.13 mph93%30.27 "HgN/A
10:20 pm45 °FPassing clouds.14 mph93%30.30 "HgN/A
9:50 pm45 °FPassing clouds.12 mph93%30.30 "HgN/A
9:20 pm45 °FPassing clouds.9 mph93%30.30 "HgN/A
8:50 pm45 °FLow clouds.12 mph93%30.30 "HgN/A
8:20 pm45 °FLow clouds.12 mph93%30.33 "HgN/A
7:50 pm45 °FLow clouds.9 mph93%30.33 "HgN/A
7:20 pm45 °FLow clouds.10 mph93%30.33 "HgN/A
6:50 pm45 °FLow clouds.8 mph87%30.33 "HgN/A
6:20 pm43 °FLow clouds.7 mph87%30.33 "HgN/A
5:50 pm43 °FPassing clouds.7 mph87%30.33 "HgN/A
5:20 pm43 °FPartly cloudy.5 mph81%30.33 "HgN/A
4:50 pm43 °FPassing clouds.6 mph81%30.33 "HgN/A
4:20 pm45 °FPartly sunny.9 mph76%30.33 "HgN/A
3:50 pm45 °FQuite cool.9 mph76%30.33 "HgN/A
3:20 pm45 °FQuite cool.12 mph76%30.33 "HgN/A
2:50 pm46 °FCool.12 mph71%30.33 "HgN/A
2:20 pm46 °FCool.14 mph71%30.33 "HgN/A
1:50 pm45 °FPassing clouds.17 mph76%30.33 "HgN/A
1:20 pm45 °FPassing clouds.16 mph76%30.36 "HgN/A
12:50 pm45 °FPassing clouds.14 mph81%30.36 "HgN/A
12:20 pm45 °FPartly sunny.14 mph81%30.36 "HgN/A
11:50 am45 °FPartly sunny.14 mph81%30.36 "HgN/A
11:20 am43 °FPartly sunny.14 mph93%30.36 "HgN/A
10:50 am43 °FPartly sunny.14 mph87%30.36 "HgN/A
10:20 am41 °FPartly sunny.10 mph93%30.36 "HgN/A
9:50 am41 °FScattered clouds.10 mph93%30.36 "HgN/A
9:20 am39 °FScattered clouds.9 mph100%30.36 "HgN/A
8:50 am39 °FPassing clouds.7 mph100%30.36 "HgN/A
8:20 am39 °FChilly.7 mph100%30.36 "HgN/A
7:50 am41 °FQuite cool.6 mph93%30.36 "HgN/A
7:20 am41 °FQuite cool.8 mph93%30.36 "HgN/A
6:50 am43 °FPassing clouds.8 mph87%30.36 "HgN/A
6:20 am43 °FPassing clouds.10 mph93%30.36 "HgN/A
Weather by CustomWeather, © 2022

See weather overview